Regional Weather Roundup
Issued by NWS

Home | Current Version | Previous Version | Text Only | Print | Product List | Glossary Off
Versions: 1 2 3 4 5 6 7 8 9 10 11 12 13 14 15 16 17 18 19 20 21 22 23 24 25 26 27 28 29 30 31 32 33 34 35 36 37 38 39 40 41 42 43 44 45 46 47 48 49 50

000
ASUS43 KBIS 231102
RWRND

NORTH DAKOTA REGIONAL WEATHER ROUNDUP
NATIONAL WEATHER SERVICE BISMARCK ND
500 AM CST THU NOV 23 2017

NOTE: "FAIR" INDICATES FEW OR NO CLOUDS BELOW 12,000 FEET WITH NO
SIGNIFICANT WEATHER AND/OR OBSTRUCTIONS TO VISIBILITY.


NDZ001>003-009>011-017-231200-
NORTHWEST NORTH DAKOTA

CITY           SKY/WX    TMP DP  RH WIND       PRES   REMARKS
WILLISTON      CLEAR     26  24  92 CALM      29.78F
MINOT          CLOUDY    28  25  88 S7        29.79F
MINOT AFB      CLOUDY    23  21  92 S6        29.77F WCI  16
$$

NDZ018>021-031>035-040>046-231200-
SOUTHWEST NORTH DAKOTA

CITY           SKY/WX    TMP DP  RH WIND       PRES   REMARKS
BISMARCK       CLOUDY    26  22  84 E3        29.89F
DICKINSON      CLOUDY    43  38  82 W12       29.83F
GARRISON         N/A     29  28  96 S7        29.82F
HETTINGER ARPT CLOUDY    36  33  89 NW3       29.91F
$$

NDZ004>008-012>016-024-026-027-054-231200-
NORTHEAST NORTH DAKOTA

CITY           SKY/WX    TMP DP  RH WIND       PRES   REMARKS
GRAND FORKS    CLOUDY    26  24  92 S6        29.90F WCI  19
GRND FRKS AFB  CLOUDY    29  28  96 SW3       29.90S
DEVILS LAKE    CLOUDY    25  23  92 W3        29.87S
$$

NDZ022-023-025-028>030-036>039-047>053-231200-
SOUTHEAST NORTH DAKOTA

CITY           SKY/WX    TMP DP  RH WIND       PRES   REMARKS
FARGO          CLOUDY    26  20  77 S5        29.93F
JAMESTOWN      CLOUDY    20  19  96 S6        29.89F WCI  12
$$





USA.gov is the U.S. government's official web portal to all federal, state and local government web resources and services.